Location: *
(50.3440°N, 18.6237°E)
Time: 18:00:06
(UTC+00:00)

NOAA 6 - Pass Details

Date: 30 November 2020
Orbit: 772 x 787 km, 98.7° (Epoch: 17 January)

Event Time Altitude Azimuth Distance (km) Brightness Sun altitude
Rises 15:12:18 0° 152° (SSE) 3,256 7.3 -4.5°
Reaches altitude 10° 15:14:38 10° 149° (SSE) 2,330 6.5 -4.8°
Maximum altitude 15:19:41 61° 70° (ENE) 885 4.1 -5.5°
Drops below altitude 10° 15:24:45 10° 351° (N) 2,338 6.3 -6.2°
Sets 15:27:06 0° 348° (NNW) 3,268 7.1 -6.6°
